User: anonymous   Login
Location: Unspecified
(0.0000°N, 0.0000°E)
Time: 21:02:03
(UTC+00:00)
Language:

GGSE 5 - Orbit

View from above orbital plane
View from above orbital plane
View from above satellite
View from above satellite

Ground track
Ground track

The orbit data is extracted from the following two-line orbital elements,

1 02834U 67053D   18016.05546372 -.00000015  00000-0  27902-4 0  9997
2 02834  69.9709 232.5582 0010037 243.6760 116.3315 13.95786275577726
Epoch (UTC): 16 January 2018 01:19:52
Eccentricity: 0.0010037
inclination: 69.9709°
perigee height: 901 km
apogee height: 916 km
right ascension of ascending node: 232.5582°
argument of perigee: 243.6760°
revolutions per day: 13.95786275
mean anomaly at epoch: 116.3315°
orbit number at epoch: 57772

The dashed part of the orbit path shows where the satellite is in the earth's shadow,  

DLR